Location: Beemte
(52.2555°N, 5.9895°E)
Time: 19:33:38
(UTC+00:00)

Meteor 1-27 Rocket - Pass Details

Date: 15 May 2026
Orbit: 830 x 907 km, 81.3° (Epoch: 6 June)

Event Time Altitude Azimuth Distance (km) Brightness Sun altitude
Exits shadow 23:25:47 33° 175° (S) 1,455 4.4 -18.7°
Maximum altitude 23:28:30 72° 99° (E) 926 3.8 -18.7°
Drops below altitude 10° 23:34:13 10° 16° (NNE) 2,521 7.3 -18.7°
Sets 23:36:38 0° 15° (NNE) 3,451 8.4 -18.7°
